Location: Memphis
(29.8667°N, 31.2500°E)
Time: 06:59:21
(UTC+00:00)

Cosmos 1844 Rocket - Pass Details

Date: 03 March 2021
Orbit: 826 x 843 km, 71.0° (Epoch: 15 April)

Event Time Altitude Azimuth Distance (km) Brightness Sun altitude
Rises 16:44:53 0° 356° (N) 3,365 5.9 -11.5°
Reaches altitude 10° 16:47:53 10° 12° (NNE) 2,429 5.0 -12.1°
Maximum altitude 16:52:08 22° 62° (ENE) 1,727 3.8 -13.1°
Enters shadow 16:53:58 19° 89° (E) 1,874 3.8 -13.5°
